When you browse on this site, cookies collect data to enhance your experience and personalize the content and advertising you see.
Visit our Privacy Policy to learn more. By continuing to use the site, you agree to this use of cookies and data.
EN

Hourly Weather Razgrad

Today, 11 August, Tuesday

Time Temperature Precipitation Wind Pressure Humidity
00:00 +22°C° 0 mm 1 mps 741 mmHg 50%
01:00 +22°C° 0 mm 1 mps 741 mmHg 51%
02:00 +21°C° 0 mm 1 mps 741 mmHg 53%
03:00 +21°C° 0 mm 1 mps 741 mmHg 55%
04:00 +20°C° 0 mm 1 mps 741 mmHg 56%
05:00 +18°C° 0 mm 0 mps 741 mmHg 57%
06:00 +23°C° 0 mm 1 mps 741 mmHg 51%
07:00 +25°C° 0 mm 1 mps 741 mmHg 44%
08:00 +28°C° 0 mm 1 mps 741 mmHg 38%
09:00 +30°C° 0 mm 1 mps 741 mmHg 34%
10:00 +32°C° 0 mm 2 mps 742 mmHg 31%
11:00 +34°C° 0 mm 2 mps 742 mmHg 27%
12:00 +35°C° 0 mm 2 mps 741 mmHg 27%
13:00 +35°C° 0 mm 2 mps 741 mmHg 27%
14:00 +35°C° 0 mm 2 mps 741 mmHg 27%
15:00 +34°C° 0 mm 2 mps 741 mmHg 27%
16:00 +34°C° 0 mm 2 mps 740 mmHg 28%
17:00 +34°C° 0 mm 2 mps 740 mmHg 29%
18:00 +31°C° 0 mm 2 mps 740 mmHg 32%
19:00 +29°C° 0 mm 1 mps 740 mmHg 36%
20:00 +27°C° 0 mm 1 mps 740 mmHg 39%
21:00 +26°C° 0 mm 1 mps 740 mmHg 42%
22:00 +25°C° 0 mm 1 mps 741 mmHg 44%
23:00 +24°C° 0 mm 1 mps 741 mmHg 47%

Tomorrow, 12 August, Wednesday

Time Temperature Precipitation Wind Pressure Humidity
00:00 +24°C° 0 mm 1 mps 741 mmHg 49%
01:00 +23°C° 0 mm 1 mps 740 mmHg 51%
02:00 +22°C° 0 mm 1 mps 740 mmHg 53%
03:00 +22°C° 0 mm 1 mps 740 mmHg 54%
04:00 +22°C° 0 mm 1 mps 740 mmHg 55%
05:00 +21°C° 0 mm 1 mps 740 mmHg 56%
06:00 +24°C° 0 mm 1 mps 740 mmHg 50%
07:00 +26°C° 0 mm 1 mps 741 mmHg 44%
08:00 +28°C° 0 mm 1 mps 741 mmHg 38%
09:00 +30°C° 0 mm 2 mps 741 mmHg 35%
10:00 +32°C° 0 mm 2 mps 741 mmHg 32%
11:00 +35°C° 0 mm 2 mps 741 mmHg 29%
12:00 +35°C° 0 mm 2 mps 741 mmHg 29%
13:00 +35°C° 0 mm 2 mps 740 mmHg 29%
14:00 +35°C° 0 mm 2 mps 740 mmHg 28%
15:00 +35°C° 0 mm 2 mps 740 mmHg 29%
16:00 +34°C° 0 mm 2 mps 740 mmHg 30%
17:00 +34°C° 0 mm 2 mps 740 mmHg 31%
18:00 +31°C° 0 mm 2 mps 740 mmHg 35%
19:00 +29°C° 0 mm 2 mps 740 mmHg 39%
20:00 +28°C° 0 mm 2 mps 740 mmHg 43%
21:00 +26°C° 0.1 mm 2 mps 741 mmHg 49%
22:00 +25°C° 0.1 mm 2 mps 741 mmHg 54%
23:00 +24°C° 0.1 mm 2 mps 741 mmHg 60%

Day after tomorrow, 13 August, Thursday

Time Temperature Precipitation Wind Pressure Humidity
00:00 +23°C° 0.5 mm 1 mps 741 mmHg 66%
01:00 +22°C° 0.5 mm 1 mps 741 mmHg 72%
02:00 +22°C° 0.5 mm 1 mps 742 mmHg 78%
03:00 +21°C° 0.2 mm 1 mps 742 mmHg 80%
04:00 +21°C° 0.2 mm 1 mps 742 mmHg 82%
05:00 +20°C° 0.2 mm 2 mps 742 mmHg 84%
06:00 +20°C° 0 mm 2 mps 742 mmHg 81%
07:00 +21°C° 0 mm 2 mps 742 mmHg 77%
08:00 +23°C° 0 mm 2 mps 743 mmHg 73%
09:00 +25°C° 0 mm 2 mps 743 mmHg 64%
10:00 +28°C° 0 mm 2 mps 743 mmHg 54%
11:00 +30°C° 0 mm 2 mps 743 mmHg 45%
12:00 +31°C° 0.1 mm 2 mps 743 mmHg 42%
13:00 +31°C° 0.1 mm 3 mps 742 mmHg 40%
14:00 +33°C° 0.1 mm 3 mps 742 mmHg 37%
15:00 +31°C° 0 mm 3 mps 742 mmHg 41%
16:00 +30°C° 0 mm 3 mps 741 mmHg 46%
17:00 +28°C° 0 mm 3 mps 741 mmHg 51%
18:00 +27°C° 0 mm 3 mps 741 mmHg 57%
19:00 +25°C° 0 mm 2 mps 742 mmHg 64%
20:00 +24°C° 0 mm 2 mps 742 mmHg 71%
21:00 +23°C° 0 mm 2 mps 742 mmHg 76%
22:00 +21°C° 0 mm 2 mps 742 mmHg 80%
23:00 +20°C° 0 mm 2 mps 742 mmHg 85%

14 August, Friday

Time Temperature Precipitation Wind Pressure Humidity
00:00 +20°C° 0 mm 2 mps 742 mmHg 87%
01:00 +19°C° 0 mm 2 mps 742 mmHg 89%
02:00 +19°C° 0 mm 2 mps 742 mmHg 90%
03:00 +19°C° 0 mm 2 mps 742 mmHg 90%
04:00 +19°C° 0 mm 2 mps 741 mmHg 90%
05:00 +19°C° 0 mm 2 mps 741 mmHg 90%
06:00 +21°C° 0 mm 2 mps 741 mmHg 79%
07:00 +24°C° 0 mm 2 mps 742 mmHg 67%
08:00 +26°C° 0 mm 2 mps 742 mmHg 56%
09:00 +29°C° 0 mm 2 mps 742 mmHg 48%
10:00 +31°C° 0 mm 2 mps 742 mmHg 39%
11:00 +34°C° 0 mm 2 mps 742 mmHg 31%
12:00 +34°C° 0 mm 2 mps 742 mmHg 30%
13:00 +34°C° 0 mm 2 mps 741 mmHg 30%
14:00 +32°C° 0 mm 2 mps 741 mmHg 30%
15:00 +32°C° 0 mm 2 mps 740 mmHg 30%
16:00 +32°C° 0 mm 2 mps 740 mmHg 30%
17:00 +33°C° 0 mm 3 mps 740 mmHg 31%
18:00 +30°C° 0 mm 3 mps 740 mmHg 37%
19:00 +27°C° 0 mm 3 mps 740 mmHg 43%
20:00 +25°C° 0 mm 4 mps 740 mmHg 50%
21:00 +22°C° 0 mm 4 mps 740 mmHg 54%
22:00 +21°C° 0 mm 3 mps 741 mmHg 59%
23:00 +20°C° 0 mm 3 mps 741 mmHg 63%

15 August, Saturday

Time Temperature Precipitation Wind Pressure Humidity
00:00 +20°C° 0 mm 3 mps 741 mmHg 66%
01:00 +19°C° 0 mm 3 mps 741 mmHg 69%
02:00 +19°C° 0 mm 3 mps 741 mmHg 71%
03:00 +19°C° 0 mm 3 mps 740 mmHg 72%
04:00 +19°C° 0 mm 3 mps 740 mmHg 73%
05:00 +18°C° 0 mm 3 mps 740 mmHg 74%
06:00 +21°C° 0 mm 3 mps 740 mmHg 63%
07:00 +23°C° 0 mm 4 mps 740 mmHg 53%
08:00 +27°C° 0 mm 4 mps 741 mmHg 42%
09:00 +29°C° 0 mm 5 mps 741 mmHg 38%
10:00 +32°C° 0 mm 5 mps 741 mmHg 33%
11:00 +34°C° 0 mm 5 mps 741 mmHg 29%
12:00 +34°C° 0 mm 5 mps 740 mmHg 27%
13:00 +35°C° 0 mm 5 mps 740 mmHg 26%
14:00 +35°C° 0 mm 5 mps 740 mmHg 25%
15:00 +34°C° 0 mm 5 mps 739 mmHg 25%
16:00 +34°C° 0 mm 6 mps 739 mmHg 26%
17:00 +33°C° 0 mm 6 mps 738 mmHg 27%
18:00 +29°C° 0 mm 6 mps 739 mmHg 33%
19:00 +27°C° 0 mm 6 mps 739 mmHg 40%
20:00 +23°C° 0 mm 5 mps 739 mmHg 46%
21:00 +22°C° 0.1 mm 5 mps 739 mmHg 54%
22:00 +20°C° 0.1 mm 4 mps 739 mmHg 62%
23:00 +19°C° 0.1 mm 3 mps 739 mmHg 69%

16 August, Sunday

Time Temperature Precipitation Wind Pressure Humidity
00:00 +19°C° 0 mm 3 mps 739 mmHg 68%
01:00 +19°C° 0 mm 2 mps 739 mmHg 67%
02:00 +21°C° 0 mm 1 mps 739 mmHg 66%
03:00 +20°C° 0 mm 2 mps 739 mmHg 67%
04:00 +19°C° 0 mm 2 mps 739 mmHg 67%
05:00 +19°C° 0 mm 2 mps 739 mmHg 68%
06:00 +20°C° 0 mm 2 mps 739 mmHg 63%
07:00 +23°C° 0 mm 2 mps 739 mmHg 58%
08:00 +24°C° 0 mm 2 mps 739 mmHg 53%
09:00 +26°C° 0 mm 2 mps 739 mmHg 47%
10:00 +28°C° 0 mm 3 mps 739 mmHg 41%
11:00 +29°C° 0 mm 3 mps 739 mmHg 35%
12:00 +30°C° 0 mm 2 mps 739 mmHg 33%
13:00 +31°C° 0 mm 2 mps 739 mmHg 32%
14:00 +32°C° 0 mm 2 mps 738 mmHg 31%
15:00 +32°C° 0 mm 2 mps 738 mmHg 32%
16:00 +31°C° 0 mm 2 mps 738 mmHg 34%
17:00 +31°C° 0 mm 3 mps 738 mmHg 35%
18:00 +29°C° 0 mm 3 mps 738 mmHg 41%
19:00 +27°C° 0 mm 3 mps 738 mmHg 47%
20:00 +25°C° 0 mm 3 mps 738 mmHg 53%
21:00 +22°C° 0 mm 3 mps 738 mmHg 57%
22:00 +21°C° 0 mm 3 mps 738 mmHg 60%
23:00 +20°C° 0 mm 3 mps 738 mmHg 64%
Show more